User: anonymous   Login
Location: Bourg-d�Oueil
(42.8588°N, 0.4991°E)
Time: 00:26:55
(UTC+00:00)
Language:

Thor Agena Rocket - Orbit

View from above orbital plane
View from above orbital plane
View from above satellite
View from above satellite

Ground track
Ground track

The orbit data is extracted from the following two-line orbital elements,

1 00733U 64002A   21263.30170481  .00000016  00000-0  23201-4 0  9992
2 00733  98.9773 177.7723 0033416 333.0938  26.8510 14.32455194  4631
Epoch (UTC): 20 September 2021 07:14:27
Eccentricity: 0.0033416
inclination: 98.9773°
perigee height: 759 km
apogee height: 807 km
right ascension of ascending node: 177.7723°
argument of perigee: 333.0938°
revolutions per day: 14.32455194
mean anomaly at epoch: 26.8510°
orbit number at epoch: 463

The dashed part of the orbit path shows where the satellite is in the earth's shadow,  

DLR